Flag for China Weather past 2 weeks in Tianjin, Tianjin Municipality, China

Now
70 °F

Clear.


Feels Like: 70 °F
Forecast: 69 / 87 °F
Wind: 1 mph from North

Location: Tianjin / Zhangguizhu

Current Time: Sep 3, 2015 at 6:45:27 AM

Latest Report: Sep 3, 2015 at 5:30 AM


Visibility: 10 mi

Pressure: 29.95 "Hg

Humidity: 83%

Dew point: 64 °F

Location of TianjinLocation

Historic Weather in Tianjin — Graph

°F

Tianjin temperature yesterday

Maximum temperature yesterday: 84 °F (at 3:00 PM)
Minimum temperature yesterday: 66 °F (at 2:30 AM)
Average temperature yesterday: 75 °F

Past Weeks' High & Low Weather Summary

 TemperatureHumidityPressure
High91 °F (Aug 21, 1:30 PM)94% (Aug 23, 4:30 PM)29.92 "Hg (Aug 23, 4:30 PM)
Low66 °F (Aug 23, 4:30 PM)21% (Aug 21, 3:00 PM)29.62 "Hg (Aug 21, 3:30 PM)
Average76 °F67%29.80 "Hg
* Reported Aug 19 5:00 AM — Sep 3 5:00 AM, Tianjin, Weather by CustomWeather, © 2015

Note: Actual official high and low records may vary slightly from our data, if they occured in-between our weather recording intervals... More about our weather records

Advertising

Tianjin weather history for previous 24 hours

 ConditionsComfort  
Time TempWeatherWind HumidityBarometerVisibility
5:00 AM
Thu, Sep 3
68 °FClear.1 mph88%29.92 "Hg10 mi
4:30 AM68 °FClear.1 mph88%29.92 "Hg10 mi
4:00 AM70 °FClear.1 mph83%29.92 "Hg10 mi
3:30 AM70 °FClear.No wind83%29.92 "Hg10 mi
3:00 AM70 °FClear.1 mph83%29.92 "Hg10 mi
2:30 AM70 °FClear.1 mph83%29.92 "Hg10 mi
2:00 AM70 °FClear.1 mph83%29.92 "Hg10 mi
1:30 AM70 °FClear.1 mph83%29.92 "Hg5 mi
1:00 AM70 °FClear.1 mph83%29.92 "Hg5 mi
12:30 AM73 °FClear.1 mph69%29.92 "Hg5 mi
11:30 PM
Wed, Sep 2
73 °FClear.1 mph69%29.92 "Hg10 mi
11:00 PM72 °FClear.3 mph73%29.89 "Hg10 mi
10:30 PM75 °FClear.3 mph65%29.89 "Hg10 mi
10:00 PM73 °FClear.3 mph69%29.89 "Hg10 mi
9:30 PM73 °FClear.1 mph74%29.89 "Hg10 mi
9:00 PM73 °FPassing clouds.3 mph74%29.89 "HgN/A
8:30 PM75 °FClear.1 mph65%29.89 "Hg10 mi
8:00 PM75 °FClear.3 mph65%29.89 "Hg10 mi
7:30 PM77 °FClear.No wind57%29.89 "Hg10 mi
7:00 PM79 °FClear.1 mph54%29.89 "Hg10 mi
6:30 PM81 °FSunny.1 mph48%29.86 "Hg10 mi
6:00 PM81 °FSunny.6 mph51%29.86 "Hg10 mi
5:30 PM82 °FSunny.6 mph45%29.86 "Hg10 mi
5:00 PM82 °FPassing clouds.6 mph45%29.86 "HgN/A
4:30 PM84 °FPassing clouds.3 mph43%29.86 "HgN/A
4:00 PM82 °FPassing clouds.6 mph42%29.86 "HgN/A
3:30 PM82 °FPassing clouds.8 mph45%29.86 "HgN/A
3:00 PM84 °FPassing clouds.6 mph45%29.89 "HgN/A
2:30 PM82 °FScattered clouds.8 mph48%29.89 "HgN/A
2:00 PM82 °FScattered clouds.6 mph48%29.89 "HgN/A
1:30 PM82 °FScattered clouds.6 mph48%29.89 "HgN/A
1:00 PM82 °FScattered clouds.6 mph51%29.89 "HgN/A
12:00 PM81 °FPassing clouds.8 mph54%29.89 "HgN/A
11:30 AM82 °FPassing clouds.8 mph55%29.92 "HgN/A
11:00 AM81 °FSunny.8 mph54%29.92 "Hg10 mi
10:30 AM81 °FPassing clouds.8 mph54%29.92 "HgN/A
10:00 AM79 °FSunny.8 mph61%29.92 "Hg10 mi
9:30 AM77 °FSunny.10 mph65%29.92 "Hg10 mi
9:00 AM75 °FSunny.8 mph69%29.92 "Hg10 mi
8:30 AM73 °FSunny.8 mph74%29.92 "Hg10 mi
8:00 AM72 °FSunny.8 mph83%29.92 "Hg10 mi
7:30 AM70 °FClear.3 mph88%29.92 "Hg5 mi
7:00 AM68 °FFog.6 mph94%29.92 "Hg3 mi
6:30 AM68 °FFog.3 mph88%29.89 "Hg2 mi
Weather by CustomWeather, © 2015

See weather overviewHow to use our weather pages